Mount Airy, NC

7:23 AM EDT on March 26, 2017 (GMT -0400)
Mount Airy-Surry County

Weather History for KMWK - February, 2013

Change the Weather History Date:

Sunday, February 17, 2013

  Actual Average (KINT) Record (KINT)
Temperature  
Mean Temperature 30 °F -  
Max Temperature 38 °F 50 °F 73 °F (1976)
Min Temperature 22 °F 33 °F 11 °F (1977)
Degree Days  
Heating Degree Days 35    
Moisture  
Dew Point 3 °F    
Average Humidity 34    
Maximum Humidity 62    
Minimum Humidity 18    
Precipitation  
Precipitation 0.00 in - - ()
Sea Level Pressure  
Sea Level Pressure 30.06 in    
Wind  
Wind Speed 9 mph (WNW)    
Max Wind Speed 16 mph    
Max Gust Speed 31 mph    
Visibility 10 miles    
Events      
Averages and records for this station are not official NWS values.
T = Trace of Precipitation, MM = Missing Value Source: NWS Daily Summary

Daily Weather History Graph

Daily Weather History Graph

Search for Another Location

Airport or City:

Trip Planner

Search our weather history database for the weather conditions in past years. The results will help you decide how hot, cold, wet, or windy it might be!

Date:

Astronomy

Feb. 17, 2013 Rise Set
Actual Time 7:07 AM EST 6:05 PM EST
Civil Twilight 6:41 AM EST 6:31 PM EST
Nautical Twilight 6:11 AM EST 7:01 PM EST
Astronomical Twilight 5:41 AM EST 7:31 PM EST
Moon 11:12 AM EST (2/17) 12:46 AM EST (2/17)
Length of Visible Light 11h 50m
Length of Day
10h 57m
Waxing Crescent, 49% of the Moon is Illuminated
Feb 17
Waxing Crescent
Feb 17
First Quarter
Feb 25
Full
Mar 4
Last Quarter
Mar 11
New

Hourly Weather History & Observations

Time (EST) Temp. Windchill Dew Point Humidity Pressure Visibility Wind Dir Wind Speed Gust Speed Precip Events Conditions
12:15 AM 27.5 °F 21.1 °F 16.2 °F 62% 29.92 in 10.0 mi WNW 5.8 mph - N/A   Clear
12:35 AM 27.3 °F 19.9 °F 14.9 °F 60% 29.92 in 10.0 mi WNW 6.9 mph - N/A   Clear
12:55 AM 27.5 °F 16.8 °F 11.1 °F 50% 29.93 in 10.0 mi West 12.7 mph 21.9 mph N/A   Clear
1:15 AM 27.9 °F 17.3 °F 8.4 °F 44% 29.93 in 10.0 mi WNW 12.7 mph 19.6 mph N/A   Clear
1:35 AM 27.5 °F 16.8 °F 7.7 °F 43% 29.93 in 10.0 mi NW 12.7 mph 18.4 mph N/A   Clear
1:55 AM 27.0 °F 17.3 °F 7.5 °F 44% 29.93 in 10.0 mi WNW 10.4 mph 17.3 mph N/A   Clear
2:15 AM 26.4 °F - 6.8 °F 43% 29.93 in 10.0 mi Calm Calm - N/A   Clear
2:35 AM 26.2 °F 17.8 °F 7.7 °F 46% 29.93 in 10.0 mi WNW 8.1 mph 16.1 mph N/A   Clear
2:55 AM 26.2 °F 19.6 °F 9.3 °F 49% 29.94 in 10.0 mi WNW 5.8 mph 19.6 mph N/A   Clear
3:15 AM 26.1 °F 16.2 °F 10.2 °F 51% 29.95 in 10.0 mi WNW 10.4 mph - N/A   Scattered Clouds
3:35 AM 25.5 °F 15.5 °F 13.1 °F 59% 29.95 in 10.0 mi WNW 10.4 mph 13.8 mph N/A   Mostly Cloudy
3:55 AM 25.3 °F 17.6 °F 13.3 °F 60% 29.95 in 10.0 mi WNW 6.9 mph - N/A   Mostly Cloudy
4:15 AM 24.4 °F 20.1 °F 13.1 °F 62% 29.95 in 10.0 mi WNW 3.5 mph - N/A   Scattered Clouds
4:35 AM 23.9 °F 12.9 °F 12.4 °F 62% 29.96 in 10.0 mi NW 11.5 mph 17.3 mph N/A   Scattered Clouds
4:55 AM 23.9 °F 15.0 °F 11.1 °F 58% 29.96 in 10.0 mi WNW 8.1 mph 18.4 mph N/A   Clear
5:15 AM 24.1 °F 12.5 °F 7.5 °F 49% 29.98 in 10.0 mi WNW 12.7 mph 25.3 mph N/A   Clear
5:35 AM 23.9 °F 10.8 °F 3.7 °F 42% 29.98 in 10.0 mi WNW 16.1 mph 27.6 mph N/A   Scattered Clouds
5:55 AM 23.7 °F 11.0 °F 2.8 °F 41% 29.98 in 10.0 mi NW 15.0 mph 25.3 mph N/A   Scattered Clouds
6:15 AM 23.5 °F 13.0 °F 0.5 °F 37% 30.00 in 10.0 mi WNW 10.4 mph 26.5 mph N/A   Clear
6:35 AM 23.0 °F 11.1 °F -0.2 °F 36% 30.01 in 10.0 mi WNW 12.7 mph 23.0 mph N/A   Clear
7:15 AM 23.0 °F 11.7 °F -0.4 °F 36% 30.02 in 10.0 mi WNW 11.5 mph 21.9 mph N/A   Clear
7:35 AM 23.0 °F 13.9 °F 0.7 °F 38% 30.03 in 10.0 mi WNW 8.1 mph - N/A   Clear
7:55 AM 23.9 °F 12.3 °F 2.3 °F 39% 30.03 in 10.0 mi WNW 12.7 mph 19.6 mph N/A   Clear
8:15 AM 25.3 °F 15.3 °F 2.5 °F 37% 30.04 in 10.0 mi NW 10.4 mph 23.0 mph N/A   Scattered Clouds
8:55 AM 26.6 °F 16.8 °F 4.3 °F 39% 30.05 in 10.0 mi WNW 10.4 mph 19.6 mph N/A   Mostly Cloudy
9:15 AM 26.8 °F 14.5 °F 4.5 °F 39% 30.05 in 10.0 mi WNW 16.1 mph 24.2 mph N/A   Mostly Cloudy
9:55 AM 29.1 °F 18.4 °F 3.6 °F 34% 30.06 in 10.0 mi WNW 13.8 mph 31.1 mph N/A   Scattered Clouds
10:15 AM 30.7 °F 20.0 °F 3.7 °F 32% 30.08 in 10.0 mi WNW 15.0 mph 23.0 mph N/A   Scattered Clouds
10:35 AM 31.3 °F 21.6 °F 4.6 °F 32% 30.08 in 10.0 mi West 12.7 mph 29.9 mph N/A   Scattered Clouds
10:55 AM 32.2 °F 22.3 °F 5.4 °F 32% 30.09 in 10.0 mi WNW 13.8 mph 20.7 mph N/A   Scattered Clouds
11:15 AM 32.0 °F 24.8 °F 5.7 °F 33% 30.09 in 10.0 mi WNW 8.1 mph 24.2 mph N/A   Scattered Clouds
11:35 AM 32.4 °F 22.1 °F 2.7 °F 28% 30.09 in 10.0 mi NW 15.0 mph 26.5 mph N/A   Scattered Clouds
11:55 AM 32.0 °F 23.0 °F 4.3 °F 31% 30.09 in 10.0 mi WNW 11.5 mph 24.2 mph N/A   Scattered Clouds
12:15 PM 32.9 °F 23.7 °F 4.6 °F 30% 30.08 in 10.0 mi NW 12.7 mph 20.7 mph N/A   Mostly Cloudy
12:35 PM 35.2 °F 26.6 °F 3.7 °F 27% 30.08 in 10.0 mi WNW 12.7 mph 20.7 mph N/A   Mostly Cloudy
12:55 PM 36.1 °F 28.2 °F 3.4 °F 25% 30.07 in 10.0 mi West 11.5 mph 18.4 mph N/A   Mostly Cloudy
1:15 PM 34.7 °F 28.1 °F 2.7 °F 26% 30.07 in 10.0 mi West 8.1 mph 20.7 mph N/A   Scattered Clouds
1:55 PM 35.8 °F 26.1 °F 0.7 °F 23% 30.06 in 10.0 mi NW 16.1 mph 21.9 mph N/A   Clear
2:15 PM 37.6 °F 29.6 °F 2.7 °F 23% 30.06 in 10.0 mi West 12.7 mph 20.7 mph N/A   Clear
2:35 PM 37.4 °F 29.3 °F -0.4 °F 20% 30.06 in 10.0 mi WNW 12.7 mph 26.5 mph N/A   Clear
2:55 PM 37.4 °F 29.3 °F -0.2 °F 20% 30.06 in 10.0 mi WNW 12.7 mph 27.6 mph N/A   Clear
3:15 PM 37.8 °F 30.2 °F -0.6 °F 20% 30.06 in 10.0 mi WNW 11.5 mph 20.7 mph N/A   Clear
3:35 PM 38.3 °F 30.1 °F -1.3 °F 19% 30.06 in 10.0 mi WNW 13.8 mph 24.2 mph N/A   Clear
3:55 PM 38.5 °F 33.4 °F 0.5 °F 20% 30.07 in 10.0 mi WNW 6.9 mph 18.4 mph N/A   Clear
4:15 PM 38.3 °F 33.2 °F -1.1 °F 19% 30.08 in 10.0 mi WNW 6.9 mph 17.3 mph N/A   Clear
4:35 PM 38.3 °F 30.5 °F -0.2 °F 20% 30.08 in 10.0 mi WNW 12.7 mph 17.3 mph N/A   Clear
4:55 PM 37.8 °F 32.5 °F -1.5 °F 19% 30.08 in 10.0 mi WNW 6.9 mph - N/A   Clear
5:15 PM 37.4 °F 29.3 °F -2.0 °F 19% 30.09 in 10.0 mi WNW 12.7 mph 19.6 mph N/A   Clear
5:35 PM 36.0 °F 31.1 °F -3.6 °F 18% 30.10 in 10.0 mi West 5.8 mph 18.4 mph N/A   Clear
5:55 PM 34.5 °F 25.7 °F -5.3 °F 18% 30.10 in 10.0 mi NW 12.7 mph 19.6 mph N/A   Clear
6:15 PM 33.1 °F 28.7 °F -5.1 °F 19% 30.11 in 10.0 mi West 4.6 mph - N/A   Clear
6:35 PM 32.0 °F 28.7 °F -4.7 °F 21% 30.13 in 10.0 mi West 3.5 mph - N/A   Clear
6:55 PM 31.6 °F 28.3 °F -3.1 °F 23% 30.13 in 10.0 mi West 3.5 mph - N/A   Clear
7:15 PM 31.3 °F 26.6 °F -1.5 °F 25% 30.13 in 10.0 mi West 4.6 mph - N/A   Clear
7:35 PM 32.0 °F 26.4 °F 0.5 °F 26% 30.14 in 10.0 mi WNW 5.8 mph - N/A   Clear
7:55 PM 31.1 °F 26.4 °F 0.9 °F 28% 30.15 in 10.0 mi NW 4.6 mph - N/A   Clear
8:15 PM 30.2 °F - 0.5 °F 28% 30.15 in 10.0 mi Calm Calm - N/A   Clear
8:35 PM 29.7 °F - 0.7 °F 29% 30.16 in 10.0 mi Calm Calm - N/A   Clear
8:55 PM 28.2 °F - 1.6 °F 32% 30.16 in 10.0 mi Calm Calm - N/A   Clear
9:15 PM 29.7 °F 26.1 °F 3.0 °F 32% 30.16 in 10.0 mi NW 3.5 mph - N/A   Clear
9:35 PM 28.8 °F 25.0 °F 3.0 °F 33% 30.17 in 10.0 mi SSE 3.5 mph - N/A   Clear
9:55 PM 26.4 °F - -1.1 °F 30% 30.17 in 10.0 mi Calm Calm - N/A   Clear
10:15 PM 24.8 °F - -3.8 °F 29% 30.18 in 10.0 mi Calm Calm - N/A   Clear
10:35 PM 25.7 °F - 1.0 °F 35% 30.18 in 10.0 mi Calm Calm - N/A   Clear
10:55 PM 24.6 °F - -5.3 °F 27% 30.19 in 10.0 mi Calm Calm - N/A   Clear
11:15 PM 23.5 °F - 3.9 °F 43% 30.19 in 10.0 mi Calm Calm - N/A   Clear
11:35 PM 22.3 °F - -4.9 °F 30% 30.20 in 10.0 mi Calm Calm - N/A   Clear
11:55 PM 22.1 °F - -6.2 °F 29% 30.20 in 10.0 mi Calm Calm - N/A   Clear